Flag for Turkey Weather past 2 weeks in Samsun, Turkey

Now
79 °F

Broken clouds.


Feels Like: 81 °F
Forecast: 62 / 85 °F
Wind: 12 mph from Northwest

Location: Samsun / Carsamba

Current Time: Aug 23, 2014 at 11:20:20 AM

Latest Report: Aug 23, 2014 at 10:50 AM


Visibility: N/A

Pressure: 30.01 "Hg

Humidity: 70%

Dew point: 68 °F

Location of SamsunLocation

Historic Weather in Samsun — Graph

°F

Samsun temperature yesterday

Maximum temperature yesterday: 82 °F (at 2:50 PM)
Minimum temperature yesterday: 68 °F (at 5:50 AM)
Average temperature yesterday: 76 °F

Past Weeks' High & Low Weather Summary

 TemperatureHumidityPressure
High88 °F (Aug 15, 1:50 PM)100% (Aug 14, 6:50 AM)30.04 "Hg (Aug 14, 6:50 AM)
Low66 °F (Aug 12, 3:50 AM)49% (Aug 16, 1:50 PM)29.53 "Hg (Aug 18, 3:50 AM)
Average77 °F78%29.87 "Hg
* Reported Aug 8 9:50 AM — Aug 23 9:50 AM, Samsun, Weather by CustomWeather, © 2014

Note: Actual official high and low records may vary slightly from our data, if they occured in-between our weather recording intervals... More about our weather records

Advertising

Samsun weather history for previous 24 hours

 ConditionsComfort  
Time TempWeatherWind HumidityBarometerVisibility
9:50 AM
Aug 23
79 °FBroken clouds.12 mph70%30.01 "HgN/A
8:50 AM77 °FBroken clouds.12 mph74%30.01 "HgN/A
7:50 AM75 °FBroken clouds.9 mph78%30.01 "HgN/A
6:50 AM75 °FBroken clouds.No wind78%30.01 "HgN/A
5:50 AM77 °FPartly cloudy.7 mph74%29.98 "HgN/A
4:50 AM77 °FPartly cloudy.9 mph74%29.98 "HgN/A
3:50 AM77 °FPartly cloudy.8 mph74%29.98 "HgN/A
2:50 AM75 °FPartly cloudy.8 mph83%29.98 "HgN/A
1:50 AM77 °FPartly cloudy.2 mph79%30.01 "HgN/A
12:50 AM73 °FPartly cloudy.3 mph83%30.01 "HgN/A
11:50 PM
Aug 22
75 °FPartly cloudy.5 mph83%30.01 "HgN/A
10:50 PM77 °FPartly cloudy.5 mph74%30.01 "HgN/A
9:50 PM77 °FPartly cloudy.3 mph79%30.01 "HgN/A
8:50 PM75 °FPartly cloudy.No wind83%30.01 "HgN/A
7:50 PM77 °FBroken clouds.No wind79%30.01 "HgN/A
6:50 PM79 °FBroken clouds.3 mph74%29.98 "HgN/A
5:50 PM81 °FBroken clouds.6 mph70%29.98 "HgN/A
4:50 PM81 °FBroken clouds.6 mph70%29.98 "HgN/A
3:50 PM81 °FBroken clouds.6 mph70%29.98 "HgN/A
2:50 PM82 °FBroken clouds.7 mph66%29.98 "HgN/A
1:50 PM81 °FBroken clouds.7 mph70%29.98 "HgN/A
12:50 PM81 °FBroken clouds.7 mph66%29.98 "HgN/A
11:50 AM81 °FBroken clouds.9 mph66%29.98 "HgN/A
Weather by CustomWeather, © 2014

See weather overviewHow to use our weather pages